Location: NJAA Observatory
(40.6819°N, 74.8979°W)
Time: 07:23:05
(UTC-04:00)

Iridium 4 - Visible Passes

Search period start: 31 July 2015 00:00
Search period end: 10 August 2015 00:00
Orbit: 773 x 777 km, 86.4° (Epoch: 30 July)

Date Brightness Start Highest point End Pass type
(mag) Time Alt. Az. Time Alt. Az. Time Alt. Az.
31 Jul 5.5 20:37:34 10° S 20:42:43 70° E 20:47:54 10° N visible
31 Jul 8.4 22:21:27 10° WSW 22:24:04 13° WNW 22:26:25 10° NW visible
01 Aug 7.8 21:45:07 10° SW 21:49:23 25° WNW 21:53:34 10° NNW visible
02 Aug 6.7 21:09:54 10° SSW 21:14:53 45° W 21:19:52 10° N visible
03 Aug 5.6 20:35:21 10° S 20:40:33 86° W 20:45:47 10° N visible
04 Aug 8.3 21:43:49 10° WSW 21:47:26 18° WNW 21:50:52 10° NNW visible
05 Aug 7.4 21:08:09 10° SW 21:12:50 33° W 21:17:29 10° NNW visible
06 Aug 6.2 20:33:16 10° SSW 20:38:25 62° W 20:43:35 10° N visible
07 Aug 8.5 21:42:57 10° W 21:45:31 13° WNW 21:47:47 10° NW visible
08 Aug 8.0 21:06:35 10° SW 21:10:49 24° WNW 21:14:58 10° NNW visible
09 Aug 6.9 20:31:21 10° SSW 20:36:19 45° W 20:41:17 10° N visible
